TimeCEST,TemperatureF,Dew PointF,Humidity,Sea Level PressureIn,VisibilityMPH,Wind Direction,Wind SpeedMPH,Gust SpeedMPH,PrecipitationIn,Events,Conditions,WindDirDegrees,DateUTC
12:00 AM,62.6,59.0,88,30.09,-9999.0,WNW,8.1,-,N/A,,Clear,300,2012-10-03 22:00:00
12:30 AM,64.4,59.0,83,30.06,-9999.0,ESE,4.6,-,N/A,,Clear,110,2012-10-03 22:30:00
1:00 AM,62.6,59.0,88,30.06,-9999.0,Variable,1.2,-,N/A,,Clear,0,2012-10-03 23:00:00
1:30 AM,62.6,59.0,88,30.06,-9999.0,Variable,3.5,-,N/A,,Clear,0,2012-10-03 23:30:00
2:00 AM,64,60,81,30.09,12,WNW,8.9,,,,,290,2012-10-04 00:00:00
2:00 AM,64.4,59.0,83,30.06,-9999.0,WNW,10.4,-,N/A,,Clear,290,2012-10-04 00:00:00
2:30 AM,64.4,59.0,83,30.06,-9999.0,Variable,4.6,-,N/A,,Clear,0,2012-10-04 00:30:00
3:00 AM,64.4,59.0,83,30.06,-9999.0,Variable,3.5,-,N/A,,Clear,0,2012-10-04 01:00:00
3:30 AM,62.6,59.0,88,30.06,-9999.0,Variable,2.3,-,N/A,,Clear,0,2012-10-04 01:30:00
4:00 AM,62.6,59.0,88,30.06,-9999.0,Calm,Calm,-,N/A,,Clear,0,2012-10-04 02:00:00
4:30 AM,62.6,59.0,88,30.06,-9999.0,Variable,4.6,-,N/A,,Clear,0,2012-10-04 02:30:00
5:00 AM,63,60,85,30.07,12,NNW,8.9,,,,,330,2012-10-04 03:00:00
5:00 AM,62.6,59.0,88,30.06,-9999.0,NNW,9.2,-,N/A,,Clear,330,2012-10-04 03:00:00
5:30 AM,62.6,59.0,88,30.06,-9999.0,NW,8.1,-,N/A,,Clear,320,2012-10-04 03:30:00
6:00 AM,62.6,59.0,88,30.06,-9999.0,NW,8.1,-,N/A,,Clear,310,2012-10-04 04:00:00
6:30 AM,60.8,57.2,88,30.06,-9999.0,NW,10.4,-,N/A,,Clear,320,2012-10-04 04:30:00
7:00 AM,60.8,59.0,94,30.06,6.2,NW,9.2,-,N/A,,Partly Cloudy,310,2012-10-04 05:00:00
7:30 AM,64.4,60.8,88,30.06,-9999.0,NNW,8.1,-,N/A,,Clear,330,2012-10-04 05:30:00
8:00 AM,64.4,60.8,88,30.06,6.2,Variable,1.2,-,N/A,,Partly Cloudy,0,2012-10-04 06:00:00
8:30 AM,66.2,60.8,83,30.06,6.2,Variable,1.2,-,N/A,,Partly Cloudy,0,2012-10-04 06:30:00
9:00 AM,66.2,60.8,83,30.06,6.2,Variable,2.3,-,N/A,,Partly Cloudy,0,2012-10-04 07:00:00
9:30 AM,68.0,60.8,78,30.06,6.2,Variable,3.5,-,N/A,,Partly Cloudy,0,2012-10-04 07:30:00
10:00 AM,69.8,62.6,78,30.06,-9999.0,SE,4.6,-,N/A,,Clear,130,2012-10-04 08:00:00
10:30 AM,71.6,62.6,73,30.09,-9999.0,Variable,1.2,-,N/A,,Clear,0,2012-10-04 08:30:00
11:00 AM,72,61,60,30.09,19,SW,2.2,,,,,220,2012-10-04 09:00:00
11:00 AM,71.6,60.8,69,30.06,-9999.0,Variable,2.3,-,N/A,,Clear,0,2012-10-04 09:00:00
11:30 AM,73.4,62.6,69,30.06,-9999.0,Variable,3.5,-,N/A,,Clear,0,2012-10-04 09:30:00
12:00 PM,73.4,62.6,69,30.06,-9999.0,SW,5.8,-,N/A,,Clear,230,2012-10-04 10:00:00
12:30 PM,75.2,59.0,57,30.06,6.2,SSW,4.6,-,N/A,,Partly Cloudy,210,2012-10-04 10:30:00
1:00 PM,73.4,62.6,69,30.04,6.2,SSW,6.9,-,N/A,,Partly Cloudy,200,2012-10-04 11:00:00
1:30 PM,77.0,59.0,54,30.04,6.2,SW,8.1,-,N/A,,Partly Cloudy,220,2012-10-04 11:30:00
2:00 PM,77,57,40,30.04,19,SW,8.9,,,,Scattered Clouds,230,2012-10-04 12:00:00
2:00 PM,77.0,57.2,50,30.04,6.2,SW,10.4,-,N/A,,Partly Cloudy,230,2012-10-04 12:00:00
2:30 PM,77.0,57.2,50,30.04,6.2,Variable,5.8,-,N/A,,Partly Cloudy,0,2012-10-04 12:30:00
3:00 PM,77.0,57.2,50,30.01,6.2,SW,16.1,-,N/A,,Partly Cloudy,220,2012-10-04 13:00:00
3:30 PM,77.0,57.2,50,30.01,6.2,WSW,13.8,-,N/A,,Partly Cloudy,250,2012-10-04 13:30:00
4:00 PM,77.0,59.0,54,30.01,-9999.0,West,11.5,-,N/A,,Clear,260,2012-10-04 14:00:00
4:30 PM,75.2,59.0,57,30.01,-9999.0,WSW,12.7,-,N/A,,Clear,240,2012-10-04 14:30:00
5:00 PM,75,61,53,30.02,19,WSW,13.4,,,,Clear,240,2012-10-04 15:00:00
5:00 PM,75.2,60.8,61,30.01,-9999.0,WSW,13.8,-,N/A,,Clear,240,2012-10-04 15:00:00
5:30 PM,73.4,59.0,61,30.01,-9999.0,West,9.2,-,N/A,,Clear,270,2012-10-04 15:30:00
6:00 PM,71.6,60.8,69,30.01,-9999.0,West,5.8,-,N/A,,Clear,270,2012-10-04 16:00:00
6:30 PM,69.8,60.8,73,30.01,-9999.0,WNW,6.9,-,N/A,,Clear,300,2012-10-04 16:30:00
7:00 PM,69.8,60.8,73,30.04,-9999.0,NW,6.9,-,N/A,,Clear,320,2012-10-04 17:00:00
7:30 PM,68.0,60.8,78,30.04,-9999.0,NW,10.4,-,N/A,,Clear,310,2012-10-04 17:30:00
8:00 PM,68,61,73,30.04,12,WNW,13.4,,,,,300,2012-10-04 18:00:00
8:00 PM,68.0,60.8,78,30.04,-9999.0,WNW,12.7,-,N/A,,Clear,300,2012-10-04 18:00:00
8:30 PM,68.0,60.8,78,30.04,-9999.0,WNW,11.5,-,N/A,,Clear,300,2012-10-04 18:30:00
9:00 PM,68.0,60.8,78,30.04,-9999.0,NW,11.5,-,N/A,,Clear,310,2012-10-04 19:00:00
9:30 PM,68.0,60.8,78,30.04,-9999.0,NW,12.7,-,N/A,,Clear,310,2012-10-04 19:30:00
10:00 PM,66.2,60.8,83,30.04,-9999.0,WNW,12.7,-,N/A,,Clear,300,2012-10-04 20:00:00
10:30 PM,66.2,60.8,83,30.06,-9999.0,NW,6.9,-,N/A,,Clear,310,2012-10-04 20:30:00
11:00 PM,65,60,78,30.07,12,NW,4.5,,,,,320,2012-10-04 21:00:00
11:00 PM,64.4,60.8,88,30.06,-9999.0,NW,4.6,-,N/A,,Clear,320,2012-10-04 21:00:00
11:30 PM,64.4,59.0,83,30.06,-9999.0,NW,4.6,-,N/A,,Clear,320,2012-10-04 21:30:00